Iowa City, IA

2:06 AM CST on November 17, 2019 (GMT -0600)
Iowa City Municipal

Weather History for KIOW - July, 2019

Change the Weather History Date:

Saturday, July 20, 2019

  Actual Average Record
Temperature  
Mean Temperature 87 °F 75 °F  
Max Temperature 97 °F 85 °F 99 °F (1983)
Min Temperature 76 °F 65 °F 54 °F (2000)
Degree Days  
Heating Degree Days 0 0  
Month to date heating degree days 0 0  
Since 1 June heating degree days 6 17  
Since 1 July heating degree days 0 0  
Cooling Degree Days 22 10  
Month to date cooling degree days 325 200  
Year to date cooling degree days 569 472  
Since 1 June cooling degree days 523 411  
Growing Degree Days 38 (Base 50)    
Moisture  
Dew Point 74 °F    
Average Humidity 71    
Maximum Humidity 91    
Minimum Humidity 51    
Precipitation  
Precipitation 0.05 in 0.15 in 1.01 in (1984)
Month to date precipitation 0.85 3.52  
Year to date precipitation 24.58 20.22  
Sea Level Pressure  
Sea Level Pressure 29.83 in    
Wind  
Wind Speed 9 mph (SSW)    
Max Wind Speed 24 mph    
Max Gust Speed 31 mph    
Visibility 10 miles    
Events Rain    
T = Trace of Precipitation, MM = Missing Value Source: NWS Daily Summary

Daily Weather History Graph

Daily Weather History Graph

Search for Another Location

Airport or City:

Astronomy

Jul. 20, 2019 Rise Set
Actual Time 5:49 AM CDT 8:35 PM CDT
Civil Twilight 5:16 AM CDT 9:08 PM CDT
Nautical Twilight 4:35 AM CDT 9:48 PM CDT
Astronomical Twilight 3:48 AM CDT 10:35 PM CDT
Moon 11:00 PM CDT (7/20) 9:15 AM CDT (7/20)
Length of Visible Light 15h 51m
Length of Day
14h 46m
Waning Gibbous, 87% of the Moon is Illuminated
Jul 20
Waning Gibbous
Jul 24
Last Quarter
Jul 31
New
Aug 7
First Quarter
Aug 15
Full

Hourly Weather History & Observations

Time (CDT) Temp. Heat Index Dew Point Humidity Pressure Visibility Wind Dir Wind Speed Gust Speed Precip Events Conditions
12:52 AM 84.0 °F 94.8 °F 78.1 °F 82% 29.80 in 10.0 mi South 4.6 mph - N/A   Clear
1:52 AM 82.0 °F 91.0 °F 78.1 °F 88% 29.81 in 10.0 mi SSE 4.6 mph - N/A   Clear
2:52 AM 82.0 °F 90.2 °F 77.0 °F 85% 29.81 in 10.0 mi SSE 4.6 mph - N/A   Clear
3:52 AM 81.0 °F 87.9 °F 77.0 °F 88% 29.81 in 10.0 mi SSE 4.6 mph - N/A   Clear
4:52 AM 81.0 °F 87.3 °F 75.9 °F 85% 29.81 in 10.0 mi South 4.6 mph - N/A   Clear
5:52 AM 81.0 °F 87.3 °F 75.9 °F 85% 29.82 in 10.0 mi North - - N/A   Clear
6:52 AM 82.0 °F 89.4 °F 75.9 °F 82% 29.82 in 10.0 mi South 6.9 mph - N/A   Clear
7:52 AM 84.9 °F 94.1 °F 75.9 °F 74% 29.80 in 10.0 mi South 9.2 mph - N/A   Clear
8:52 AM 87.1 °F 97.3 °F 75.9 °F 69% 29.81 in 10.0 mi SW 8.1 mph 17.3 mph N/A   Overcast
9:52 AM 89.1 °F 99.1 °F 75.0 °F 63% 29.82 in 10.0 mi SW 10.4 mph - N/A   Clear
10:52 AM 91.9 °F 103.2 °F 75.0 °F 58% 29.81 in 10.0 mi SSW 10.4 mph 20.7 mph N/A   Clear
11:52 AM 93.0 °F 105.3 °F 75.9 °F 57% 29.83 in 10.0 mi SW 8.1 mph 17.3 mph N/A   Clear
12:52 PM 96.1 °F 109.4 °F 75.9 °F 52% 29.82 in 10.0 mi SW 9.2 mph - N/A   Clear
1:52 PM 96.1 °F 109.4 °F 75.9 °F 52% 29.83 in 10.0 mi SSW 6.9 mph - N/A   Clear
2:52 PM 96.1 °F 109.4 °F 75.9 °F 52% 29.81 in 10.0 mi SSW 4.6 mph - N/A   Partly Cloudy
3:41 PM 87.1 °F 92.0 °F 70.0 °F 57% 29.86 in 10.0 mi NNE 19.6 mph 29.9 mph N/A   Mostly Cloudy
3:52 PM 88.0 °F 92.9 °F 70.0 °F 55% 29.83 in 10.0 mi NNE 12.7 mph 24.2 mph N/A   Overcast
4:52 PM 89.1 °F 93.7 °F 69.1 °F 52% 29.84 in 10.0 mi NNE 13.8 mph - N/A   Partly Cloudy
5:52 PM 87.1 °F 91.3 °F 69.1 °F 55% 29.87 in 10.0 mi NE 15.0 mph - N/A   Mostly Cloudy
6:52 PM 84.9 °F 88.8 °F 69.1 °F 59% 29.83 in 10.0 mi SE 8.1 mph - N/A   Clear
7:52 PM 82.0 °F 85.9 °F 70.0 °F 67% 29.83 in 10.0 mi SSE 5.8 mph - N/A   Clear
8:52 PM 82.9 °F 88.0 °F 72.0 °F 69% 29.86 in 10.0 mi WSW 3.5 mph - 0.00 in Rain Light Rain
9:52 PM 80.1 °F 85.1 °F 75.0 °F 85% 29.88 in 10.0 mi WNW 8.1 mph - 0.03 in Rain Light Rain
10:52 PM 81.0 °F 86.2 °F 73.9 °F 79% 29.84 in 10.0 mi NNW 15.0 mph 26.5 mph 0.02 in   Partly Cloudy
11:52 PM 77.0 °F - 70.0 °F 79% 29.88 in 10.0 mi North 12.7 mph 21.9 mph N/A   Clear